#	"Date Time, GMT-07:00"	Temp C
1	6/10/2014 17:25	24.351
2	6/10/2014 17:40	24.931
3	6/10/2014 17:55	23.581
4	6/10/2014 18:10	23.004
5	6/10/2014 18:25	22.717
6	6/10/2014 18:40	22.717
7	6/10/2014 18:55	22.717
8	6/10/2014 19:10	22.717
9	6/10/2014 19:25	22.717
10	6/10/2014 19:40	22.812
11	6/10/2014 19:55	22.621
12	6/10/2014 20:10	22.429
13	6/10/2014 20:25	22.333
14	6/10/2014 20:40	22.238
15	6/10/2014 20:55	22.238
16	6/10/2014 21:10	22.142
17	6/10/2014 21:25	22.046
18	6/10/2014 21:40	21.855
19	6/10/2014 21:55	21.664
20	6/10/2014 22:10	21.473
21	6/10/2014 22:25	21.282
22	6/10/2014 22:40	21.091
23	6/10/2014 22:55	20.901
24	6/10/2014 23:10	20.71
25	6/10/2014 23:25	20.519
26	6/10/2014 23:40	20.329
27	6/10/2014 23:55	20.138
28	6/11/2014 0:10	20.043
29	6/11/2014 0:25	19.758
30	6/11/2014 0:40	19.567
31	6/11/2014 0:55	19.282
32	6/11/2014 1:10	19.092
33	6/11/2014 1:25	18.806
34	6/11/2014 1:40	18.521
35	6/11/2014 1:55	18.236
36	6/11/2014 2:10	17.95
37	6/11/2014 2:25	17.665
38	6/11/2014 2:40	17.475
39	6/11/2014 2:55	17.189
40	6/11/2014 3:10	16.903
41	6/11/2014 3:25	16.713
42	6/11/2014 3:40	16.427
43	6/11/2014 3:55	16.237
44	6/11/2014 4:10	15.951
45	6/11/2014 4:25	15.76
46	6/11/2014 4:40	15.473
47	6/11/2014 4:55	15.282
48	6/11/2014 5:10	15.091
49	6/11/2014 5:25	14.9
50	6/11/2014 5:40	14.709
51	6/11/2014 5:55	14.613
52	6/11/2014 6:10	14.421
53	6/11/2014 6:25	14.325
54	6/11/2014 6:40	14.134
55	6/11/2014 6:55	14.038
56	6/11/2014 7:10	14.038
57	6/11/2014 7:25	13.942
58	6/11/2014 7:40	13.942
59	6/11/2014 7:55	13.942
60	6/11/2014 8:10	14.038
61	6/11/2014 8:25	14.325
62	6/11/2014 8:40	14.709
63	6/11/2014 8:55	14.996
64	6/11/2014 9:10	15.378
65	6/11/2014 9:25	15.76
66	6/11/2014 9:40	16.141
67	6/11/2014 9:55	16.618
68	6/11/2014 10:10	17.094
69	6/11/2014 10:25	17.379
70	6/11/2014 10:40	17.665
71	6/11/2014 10:55	18.616
72	6/11/2014 11:10	20.234
73	6/11/2014 11:25	20.996
74	6/11/2014 11:40	24.641
75	6/11/2014 11:55	31.472
76	6/11/2014 12:10	36.62
77	6/11/2014 12:25	39.05
78	6/11/2014 12:40	40.761
79	6/11/2014 12:55	41.341
80	6/11/2014 13:10	43.238
81	6/11/2014 13:25	44.704
82	6/11/2014 13:40	46.083
83	6/11/2014 13:55	46.85
84	6/11/2014 14:10	47.109
85	6/11/2014 14:25	47.109
86	6/11/2014 14:40	46.465
87	6/11/2014 14:55	44.704
88	6/11/2014 15:10	40.876
89	6/11/2014 15:25	38.826
90	6/11/2014 15:40	41.692
91	6/11/2014 15:55	47.499
92	6/11/2014 16:10	45.452
93	6/11/2014 16:25	38.49
94	6/11/2014 16:40	32.704
95	6/11/2014 16:55	29.252
96	6/11/2014 17:10	25.708
97	6/11/2014 17:25	26.195
98	6/11/2014 17:40	26.683
99	6/11/2014 17:55	26.781
100	6/11/2014 18:10	26.195
101	6/11/2014 18:25	25.805
102	6/11/2014 18:40	25.61
103	6/11/2014 18:55	25.416
104	6/11/2014 19:10	25.125
105	6/11/2014 19:25	25.125
106	6/11/2014 19:40	25.222
107	6/11/2014 19:55	25.125
108	6/11/2014 20:10	25.125
109	6/11/2014 20:25	24.931
110	6/11/2014 20:40	24.835
111	6/11/2014 20:55	24.641
112	6/11/2014 21:10	24.351
113	6/11/2014 21:25	23.966
114	6/11/2014 21:40	23.677
115	6/11/2014 21:55	23.292
116	6/11/2014 22:10	23.004
117	6/11/2014 22:25	22.717
118	6/11/2014 22:40	22.429
119	6/11/2014 22:55	22.142
120	6/11/2014 23:10	21.855
121	6/11/2014 23:25	21.569
122	6/11/2014 23:40	21.282
123	6/11/2014 23:55	20.901
124	6/12/2014 0:10	20.615
125	6/12/2014 0:25	20.329
126	6/12/2014 0:40	20.138
127	6/12/2014 0:55	19.948
128	6/12/2014 1:10	19.662
129	6/12/2014 1:25	19.567
130	6/12/2014 1:40	19.282
131	6/12/2014 1:55	19.092
132	6/12/2014 2:10	18.901
133	6/12/2014 2:25	18.711
134	6/12/2014 2:40	18.521
135	6/12/2014 2:55	18.331
136	6/12/2014 3:10	18.14
137	6/12/2014 3:25	18.045
138	6/12/2014 3:40	17.855
139	6/12/2014 3:55	17.76
140	6/12/2014 4:10	17.57
141	6/12/2014 4:25	17.379
142	6/12/2014 4:40	17.284
143	6/12/2014 4:55	17.094
144	6/12/2014 5:10	16.903
145	6/12/2014 5:25	16.713
146	6/12/2014 5:40	16.618
147	6/12/2014 5:55	16.523
148	6/12/2014 6:10	16.427
149	6/12/2014 6:25	16.427
150	6/12/2014 6:40	16.523
151	6/12/2014 6:55	16.523
152	6/12/2014 7:10	16.523
153	6/12/2014 7:25	16.523
154	6/12/2014 7:40	16.618
155	6/12/2014 7:55	16.713
156	6/12/2014 8:10	16.903
157	6/12/2014 8:25	17.189
158	6/12/2014 8:40	17.57
159	6/12/2014 8:55	17.855
160	6/12/2014 9:10	18.236
161	6/12/2014 9:25	18.806
162	6/12/2014 9:40	19.092
163	6/12/2014 9:55	19.567
164	6/12/2014 10:10	20.424
165	6/12/2014 10:25	21.282
166	6/12/2014 10:40	21.664
167	6/12/2014 10:55	22.142
168	6/12/2014 11:10	22.525
169	6/12/2014 11:25	22.333
170	6/12/2014 11:40	23.1
171	6/12/2014 11:55	24.351
172	6/12/2014 12:10	25.902
173	6/12/2014 12:25	27.862
174	6/12/2014 12:40	29.452
175	6/12/2014 12:55	30.659
176	6/12/2014 13:10	31.778
177	6/12/2014 13:25	36.511
178	6/12/2014 13:40	34.585
179	6/12/2014 13:55	32.086
180	6/12/2014 14:10	31.574
181	6/12/2014 14:25	28.853
182	6/12/2014 14:40	28.06
183	6/12/2014 14:55	28.06
184	6/12/2014 15:10	28.159
185	6/12/2014 15:25	27.272
186	6/12/2014 15:40	27.272
187	6/12/2014 15:55	27.173
188	6/12/2014 16:10	27.173
189	6/12/2014 16:25	26.585
190	6/12/2014 16:40	25.805
191	6/12/2014 16:55	24.931
192	6/12/2014 17:10	15.569
193	6/12/2014 17:25	14.613
194	6/12/2014 17:40	15.378
195	6/12/2014 17:55	15.855
196	6/12/2014 18:10	15.664
197	6/12/2014 18:25	15.569
198	6/12/2014 18:40	15.473
199	6/12/2014 18:55	15.473
200	6/12/2014 19:10	15.569
201	6/12/2014 19:25	15.473
202	6/12/2014 19:40	15.473
203	6/12/2014 19:55	15.378
204	6/12/2014 20:10	15.378
205	6/12/2014 20:25	15.473
206	6/12/2014 20:40	15.378
207	6/12/2014 20:55	15.282
208	6/12/2014 21:10	15.378
209	6/12/2014 21:25	15.378
210	6/12/2014 21:40	15.378
211	6/12/2014 21:55	15.378
212	6/12/2014 22:10	15.473
213	6/12/2014 22:25	15.378
214	6/12/2014 22:40	15.378
215	6/12/2014 22:55	15.473
216	6/12/2014 23:10	15.473
217	6/12/2014 23:25	15.473
218	6/12/2014 23:40	15.473
219	6/12/2014 23:55	15.473
220	6/13/2014 0:10	15.378
221	6/13/2014 0:25	15.282
222	6/13/2014 0:40	15.282
223	6/13/2014 0:55	15.282
224	6/13/2014 1:10	15.282
225	6/13/2014 1:25	15.282
226	6/13/2014 1:40	15.282
227	6/13/2014 1:55	15.282
228	6/13/2014 2:10	15.282
229	6/13/2014 2:25	15.378
230	6/13/2014 2:40	15.473
231	6/13/2014 2:55	15.378
232	6/13/2014 3:10	14.996
233	6/13/2014 3:25	14.9
234	6/13/2014 3:40	14.996
235	6/13/2014 3:55	15.091
236	6/13/2014 4:10	15.091
237	6/13/2014 4:25	15.091
238	6/13/2014 4:40	15.091
239	6/13/2014 4:55	15.091
240	6/13/2014 5:10	15.187
241	6/13/2014 5:25	15.282
242	6/13/2014 5:40	15.282
243	6/13/2014 5:55	15.282
244	6/13/2014 6:10	15.187
245	6/13/2014 6:25	15.091
246	6/13/2014 6:40	15.187
247	6/13/2014 6:55	15.091
248	6/13/2014 7:10	15.091
249	6/13/2014 7:25	15.091
250	6/13/2014 7:40	15.091
251	6/13/2014 7:55	15.091
252	6/13/2014 8:10	15.187
253	6/13/2014 8:25	15.091
254	6/13/2014 8:40	15.187
255	6/13/2014 8:55	15.187
256	6/13/2014 9:10	15.187
257	6/13/2014 9:25	15.187
258	6/13/2014 9:40	15.187
259	6/13/2014 9:55	15.187
260	6/13/2014 10:10	15.187
261	6/13/2014 10:25	15.187
262	6/13/2014 10:40	15.187
263	6/13/2014 10:55	15.187
264	6/13/2014 11:10	15.187
265	6/13/2014 11:25	15.282
266	6/13/2014 11:40	15.378
267	6/13/2014 11:55	15.569
268	6/13/2014 12:10	15.569
269	6/13/2014 12:25	15.569
270	6/13/2014 12:40	15.76
271	6/13/2014 12:55	15.951
272	6/13/2014 13:10	15.855
273	6/13/2014 13:25	15.855
274	6/13/2014 13:40	15.951
275	6/13/2014 13:55	16.046
276	6/13/2014 14:10	16.141
277	6/13/2014 14:25	16.046
278	6/13/2014 14:40	16.046
279	6/13/2014 14:55	16.046
280	6/13/2014 15:10	16.237
281	6/13/2014 15:25	15.951
282	6/13/2014 15:40	15.855
283	6/13/2014 15:55	16.046
284	6/13/2014 16:10	16.046
285	6/13/2014 16:25	16.046
286	6/13/2014 16:40	15.951
287	6/13/2014 16:55	15.951
288	6/13/2014 17:10	16.046
289	6/13/2014 17:25	16.046
290	6/13/2014 17:40	15.951
291	6/13/2014 17:55	15.951
292	6/13/2014 18:10	15.855
293	6/13/2014 18:25	15.76
294	6/13/2014 18:40	15.76
295	6/13/2014 18:55	15.473
296	6/13/2014 19:10	15.473
297	6/13/2014 19:25	15.282
298	6/13/2014 19:40	15.282
299	6/13/2014 19:55	15.473
300	6/13/2014 20:10	15.473
301	6/13/2014 20:25	15.378
302	6/13/2014 20:40	15.282
303	6/13/2014 20:55	15.187
304	6/13/2014 21:10	15.091
305	6/13/2014 21:25	15.187
306	6/13/2014 21:40	15.091
307	6/13/2014 21:55	15.091
308	6/13/2014 22:10	15.091
309	6/13/2014 22:25	15.091
310	6/13/2014 22:40	15.091
311	6/13/2014 22:55	15.091
312	6/13/2014 23:10	15.091
313	6/13/2014 23:25	15.091
314	6/13/2014 23:40	15.091
315	6/13/2014 23:55	15.091
316	6/14/2014 0:10	15.282
317	6/14/2014 0:25	15.282
318	6/14/2014 0:40	15.282
319	6/14/2014 0:55	15.187
320	6/14/2014 1:10	15.282
321	6/14/2014 1:25	15.282
322	6/14/2014 1:40	15.282
323	6/14/2014 1:55	15.282
324	6/14/2014 2:10	15.282
325	6/14/2014 2:25	15.187
326	6/14/2014 2:40	15.187
327	6/14/2014 2:55	15.187
328	6/14/2014 3:10	15.091
329	6/14/2014 3:25	15.187
330	6/14/2014 3:40	15.187
331	6/14/2014 3:55	15.187
332	6/14/2014 4:10	15.187
333	6/14/2014 4:25	15.187
334	6/14/2014 4:40	15.187
335	6/14/2014 4:55	15.187
336	6/14/2014 5:10	15.282
337	6/14/2014 5:25	15.282
338	6/14/2014 5:40	15.187
339	6/14/2014 5:55	15.187
340	6/14/2014 6:10	15.187
341	6/14/2014 6:25	15.187
342	6/14/2014 6:40	15.187
343	6/14/2014 6:55	15.091
344	6/14/2014 7:10	15.091
345	6/14/2014 7:25	14.996
346	6/14/2014 7:40	14.996
347	6/14/2014 7:55	14.996
348	6/14/2014 8:10	14.996
349	6/14/2014 8:25	14.996
350	6/14/2014 8:40	15.091
351	6/14/2014 8:55	14.996
352	6/14/2014 9:10	14.996
353	6/14/2014 9:25	15.091
354	6/14/2014 9:40	15.091
355	6/14/2014 9:55	15.091
356	6/14/2014 10:10	15.091
357	6/14/2014 10:25	15.091
358	6/14/2014 10:40	15.187
359	6/14/2014 10:55	15.187
360	6/14/2014 11:10	15.187
361	6/14/2014 11:25	15.187
362	6/14/2014 11:40	15.187
363	6/14/2014 11:55	15.187
364	6/14/2014 12:10	15.282
365	6/14/2014 12:25	15.282
366	6/14/2014 12:40	15.378
367	6/14/2014 12:55	15.378
368	6/14/2014 13:10	15.569
369	6/14/2014 13:25	15.664
370	6/14/2014 13:40	15.76
371	6/14/2014 13:55	15.855
372	6/14/2014 14:10	15.951
373	6/14/2014 14:25	16.046
374	6/14/2014 14:40	15.951
375	6/14/2014 14:55	15.855
376	6/14/2014 15:10	15.855
377	6/14/2014 15:25	16.046
378	6/14/2014 15:40	16.141
379	6/14/2014 15:55	15.951
380	6/14/2014 16:10	15.855
381	6/14/2014 16:25	15.664
382	6/14/2014 16:40	15.76
383	6/14/2014 16:55	15.855
384	6/14/2014 17:10	15.855
385	6/14/2014 17:25	15.76
386	6/14/2014 17:40	15.76
387	6/14/2014 17:55	15.76
388	6/14/2014 18:10	15.76
389	6/14/2014 18:25	15.76
390	6/14/2014 18:40	15.664
391	6/14/2014 18:55	15.76
392	6/14/2014 19:10	15.569
393	6/14/2014 19:25	15.569
394	6/14/2014 19:40	15.473
395	6/14/2014 19:55	15.282
396	6/14/2014 20:10	15.282
397	6/14/2014 20:25	15.187
398	6/14/2014 20:40	15.091
399	6/14/2014 20:55	15.187
400	6/14/2014 21:10	15.282
401	6/14/2014 21:25	15.091
402	6/14/2014 21:40	14.9
403	6/14/2014 21:55	14.804
404	6/14/2014 22:10	14.996
405	6/14/2014 22:25	14.804
406	6/14/2014 22:40	14.9
407	6/14/2014 22:55	14.804
408	6/14/2014 23:10	14.9
409	6/14/2014 23:25	14.804
410	6/14/2014 23:40	14.804
411	6/14/2014 23:55	14.804
412	6/15/2014 0:10	14.804
413	6/15/2014 0:25	14.804
414	6/15/2014 0:40	14.996
415	6/15/2014 0:55	14.996
416	6/15/2014 1:10	14.996
417	6/15/2014 1:25	14.996
418	6/15/2014 1:40	14.996
419	6/15/2014 1:55	15.091
420	6/15/2014 2:10	14.996
421	6/15/2014 2:25	14.996
422	6/15/2014 2:40	15.091
423	6/15/2014 2:55	15.091
424	6/15/2014 3:10	15.187
425	6/15/2014 3:25	15.091
426	6/15/2014 3:40	15.091
427	6/15/2014 3:55	15.091
428	6/15/2014 4:10	15.091
429	6/15/2014 4:25	15.187
430	6/15/2014 4:40	15.091
431	6/15/2014 4:55	15.091
432	6/15/2014 5:10	15.187
433	6/15/2014 5:25	15.187
434	6/15/2014 5:40	15.091
435	6/15/2014 5:55	15.091
436	6/15/2014 6:10	14.996
437	6/15/2014 6:25	14.996
438	6/15/2014 6:40	14.996
439	6/15/2014 6:55	14.996
440	6/15/2014 7:10	14.996
441	6/15/2014 7:25	14.996
442	6/15/2014 7:40	14.996
443	6/15/2014 7:55	14.996
444	6/15/2014 8:10	14.996
445	6/15/2014 8:25	14.996
446	6/15/2014 8:40	14.996
447	6/15/2014 8:55	14.996
448	6/15/2014 9:10	14.996
449	6/15/2014 9:25	14.996
450	6/15/2014 9:40	14.996
451	6/15/2014 9:55	14.996
452	6/15/2014 10:10	15.091
453	6/15/2014 10:25	15.091
454	6/15/2014 10:40	15.187
455	6/15/2014 10:55	15.187
456	6/15/2014 11:10	15.187
457	6/15/2014 11:25	15.187
458	6/15/2014 11:40	15.187
459	6/15/2014 11:55	15.282
460	6/15/2014 12:10	15.187
461	6/15/2014 12:25	15.187
462	6/15/2014 12:40	15.282
463	6/15/2014 12:55	15.282
464	6/15/2014 13:10	15.378
465	6/15/2014 13:25	15.569
466	6/15/2014 13:40	15.664
467	6/15/2014 13:55	15.664
468	6/15/2014 14:10	15.76
469	6/15/2014 14:25	15.855
470	6/15/2014 14:40	15.951
471	6/15/2014 14:55	16.046
472	6/15/2014 15:10	16.141
473	6/15/2014 15:25	16.046
474	6/15/2014 15:40	15.951
475	6/15/2014 15:55	15.76
476	6/15/2014 16:10	15.855
477	6/15/2014 16:25	15.855
478	6/15/2014 16:40	16.141
479	6/15/2014 16:55	15.569
480	6/15/2014 17:10	15.664
481	6/15/2014 17:25	15.664
482	6/15/2014 17:40	15.664
483	6/15/2014 17:55	15.664
484	6/15/2014 18:10	15.664
485	6/15/2014 18:25	15.664
486	6/15/2014 18:40	15.664
487	6/15/2014 18:55	15.664
488	6/15/2014 19:10	15.569
489	6/15/2014 19:25	15.569
490	6/15/2014 19:40	15.569
491	6/15/2014 19:55	15.569
492	6/15/2014 20:10	15.473
493	6/15/2014 20:25	15.187
494	6/15/2014 20:40	15.091
495	6/15/2014 20:55	15.091
496	6/15/2014 21:10	15.091
497	6/15/2014 21:25	15.091
498	6/15/2014 21:40	15.091
499	6/15/2014 21:55	15.091
500	6/15/2014 22:10	15.091
501	6/15/2014 22:25	14.804
502	6/15/2014 22:40	14.9
503	6/15/2014 22:55	14.804
504	6/15/2014 23:10	14.804
505	6/15/2014 23:25	14.804
506	6/15/2014 23:40	14.804
507	6/15/2014 23:55	14.709
508	6/16/2014 0:10	14.709
509	6/16/2014 0:25	14.804
510	6/16/2014 0:40	14.804
511	6/16/2014 0:55	14.804
512	6/16/2014 1:10	14.804
513	6/16/2014 1:25	14.804
514	6/16/2014 1:40	14.804
515	6/16/2014 1:55	14.804
516	6/16/2014 2:10	14.804
517	6/16/2014 2:25	14.804
518	6/16/2014 2:40	14.804
519	6/16/2014 2:55	14.9
520	6/16/2014 3:10	14.9
521	6/16/2014 3:25	14.9
522	6/16/2014 3:40	14.996
523	6/16/2014 3:55	14.996
524	6/16/2014 4:10	15.091
525	6/16/2014 4:25	15.091
526	6/16/2014 4:40	14.996
527	6/16/2014 4:55	14.996
528	6/16/2014 5:10	14.996
529	6/16/2014 5:25	14.996
530	6/16/2014 5:40	14.9
531	6/16/2014 5:55	14.9
532	6/16/2014 6:10	14.996
533	6/16/2014 6:25	14.996
534	6/16/2014 6:40	14.9
535	6/16/2014 6:55	14.804
536	6/16/2014 7:10	14.804
537	6/16/2014 7:25	14.709
538	6/16/2014 7:40	14.804
539	6/16/2014 7:55	14.804
540	6/16/2014 8:10	14.804
541	6/16/2014 8:25	14.804
542	6/16/2014 8:40	14.804
543	6/16/2014 8:55	14.804
544	6/16/2014 9:10	14.804
545	6/16/2014 9:25	14.804
546	6/16/2014 9:40	14.804
547	6/16/2014 9:55	14.804
548	6/16/2014 10:10	14.804
549	6/16/2014 10:25	14.804
550	6/16/2014 10:40	14.804
551	6/16/2014 10:55	14.9
552	6/16/2014 11:10	14.9
553	6/16/2014 11:25	14.9
554	6/16/2014 11:40	14.9
555	6/16/2014 11:55	14.9
556	6/16/2014 12:10	14.9
557	6/16/2014 12:25	14.996
558	6/16/2014 12:40	14.996
559	6/16/2014 12:55	15.091
560	6/16/2014 13:10	15.091
561	6/16/2014 13:25	15.091
562	6/16/2014 13:40	15.091
563	6/16/2014 13:55	15.091
564	6/16/2014 14:10	15.091
565	6/16/2014 14:25	15.187
566	6/16/2014 14:40	15.187
567	6/16/2014 14:55	15.282
568	6/16/2014 15:10	15.282
569	6/16/2014 15:25	15.378
570	6/16/2014 15:40	15.378
571	6/16/2014 15:55	15.473
572	6/16/2014 16:10	15.473
573	6/16/2014 16:25	15.569
574	6/16/2014 16:40	15.664
575	6/16/2014 16:55	15.664
576	6/16/2014 17:10	15.664
577	6/16/2014 17:25	15.664
578	6/16/2014 17:40	15.664
579	6/16/2014 17:55	15.378
580	6/16/2014 18:10	15.378
581	6/16/2014 18:25	15.378
582	6/16/2014 18:40	15.378
583	6/16/2014 18:55	15.282
584	6/16/2014 19:10	15.187
585	6/16/2014 19:25	15.282
586	6/16/2014 19:40	15.282
587	6/16/2014 19:55	15.187
588	6/16/2014 20:10	15.187
589	6/16/2014 20:25	15.282
590	6/16/2014 20:40	15.187
591	6/16/2014 20:55	15.187
592	6/16/2014 21:10	15.187
593	6/16/2014 21:25	15.091
594	6/16/2014 21:40	15.187
595	6/16/2014 21:55	14.996
596	6/16/2014 22:10	14.9
597	6/16/2014 22:25	14.804
598	6/16/2014 22:40	14.613
599	6/16/2014 22:55	14.517
600	6/16/2014 23:10	14.421
601	6/16/2014 23:25	14.517
602	6/16/2014 23:40	14.517
603	6/16/2014 23:55	14.517
604	6/17/2014 0:10	14.517
605	6/17/2014 0:25	14.421
606	6/17/2014 0:40	14.421
607	6/17/2014 0:55	14.421
608	6/17/2014 1:10	14.517
609	6/17/2014 1:25	14.517
610	6/17/2014 1:40	14.517
611	6/17/2014 1:55	14.517
612	6/17/2014 2:10	14.517
613	6/17/2014 2:25	14.613
614	6/17/2014 2:40	14.613
615	6/17/2014 2:55	14.613
616	6/17/2014 3:10	14.613
617	6/17/2014 3:25	14.613
618	6/17/2014 3:40	14.709
619	6/17/2014 3:55	14.709
620	6/17/2014 4:10	14.709
621	6/17/2014 4:25	14.804
622	6/17/2014 4:40	14.804
623	6/17/2014 4:55	14.804
624	6/17/2014 5:10	14.9
625	6/17/2014 5:25	14.996
626	6/17/2014 5:40	14.996
627	6/17/2014 5:55	14.9
628	6/17/2014 6:10	14.9
629	6/17/2014 6:25	14.9
630	6/17/2014 6:40	14.9
631	6/17/2014 6:55	14.9
632	6/17/2014 7:10	14.9
633	6/17/2014 7:25	14.9
634	6/17/2014 7:40	14.804
635	6/17/2014 7:55	14.613
636	6/17/2014 8:10	14.613
637	6/17/2014 8:25	14.613
638	6/17/2014 8:40	14.613
639	6/17/2014 8:55	14.709
640	6/17/2014 9:10	14.709
641	6/17/2014 9:25	14.709
642	6/17/2014 9:40	14.804
643	6/17/2014 9:55	14.709
644	6/17/2014 10:10	14.613
645	6/17/2014 10:25	14.709
646	6/17/2014 10:40	14.709
647	6/17/2014 10:55	14.709
648	6/17/2014 11:10	14.804
649	6/17/2014 11:25	14.804
650	6/17/2014 11:40	14.9
651	6/17/2014 11:55	14.996
652	6/17/2014 12:10	14.996
653	6/17/2014 12:25	14.996
654	6/17/2014 12:40	14.996
655	6/17/2014 12:55	15.187
656	6/17/2014 13:10	15.091
657	6/17/2014 13:25	15.091
658	6/17/2014 13:40	15.091
659	6/17/2014 13:55	14.996
660	6/17/2014 14:10	14.996
661	6/17/2014 14:25	15.091
662	6/17/2014 14:40	15.187
663	6/17/2014 14:55	15.378
664	6/17/2014 15:10	15.378
665	6/17/2014 15:25	15.473
666	6/17/2014 15:40	15.473
667	6/17/2014 15:55	15.664
668	6/17/2014 16:10	15.76
669	6/17/2014 16:25	15.855
670	6/17/2014 16:40	16.046
671	6/17/2014 16:55	15.951
672	6/17/2014 17:10	15.855
673	6/17/2014 17:25	15.76
674	6/17/2014 17:40	15.951
675	6/17/2014 17:55	16.141
676	6/17/2014 18:10	15.473
677	6/17/2014 18:25	15.473
678	6/17/2014 18:40	15.091
679	6/17/2014 18:55	15.091
680	6/17/2014 19:10	15.378
681	6/17/2014 19:25	15.282
682	6/17/2014 19:40	15.282
683	6/17/2014 19:55	15.282
684	6/17/2014 20:10	15.282
685	6/17/2014 20:25	15.378
686	6/17/2014 20:40	15.282
687	6/17/2014 20:55	15.187
688	6/17/2014 21:10	15.187
689	6/17/2014 21:25	15.091
690	6/17/2014 21:40	15.091
691	6/17/2014 21:55	14.996
692	6/17/2014 22:10	14.996
693	6/17/2014 22:25	14.996
694	6/17/2014 22:40	14.709
695	6/17/2014 22:55	14.996
696	6/17/2014 23:10	14.996
697	6/17/2014 23:25	14.804
698	6/17/2014 23:40	14.613
699	6/17/2014 23:55	14.613
700	6/18/2014 0:10	14.517
701	6/18/2014 0:25	14.517
702	6/18/2014 0:40	14.517
703	6/18/2014 0:55	14.517
704	6/18/2014 1:10	14.517
705	6/18/2014 1:25	14.517
706	6/18/2014 1:40	14.517
707	6/18/2014 1:55	14.517
708	6/18/2014 2:10	14.517
709	6/18/2014 2:25	14.517
710	6/18/2014 2:40	14.613
711	6/18/2014 2:55	14.709
712	6/18/2014 3:10	14.709
713	6/18/2014 3:25	14.709
714	6/18/2014 3:40	14.709
715	6/18/2014 3:55	14.709
716	6/18/2014 4:10	14.804
717	6/18/2014 4:25	14.804
718	6/18/2014 4:40	14.804
719	6/18/2014 4:55	14.804
720	6/18/2014 5:10	14.709
721	6/18/2014 5:25	14.613
722	6/18/2014 5:40	14.709
723	6/18/2014 5:55	14.709
724	6/18/2014 6:10	14.709
725	6/18/2014 6:25	14.709
726	6/18/2014 6:40	14.804
727	6/18/2014 6:55	14.804
728	6/18/2014 7:10	14.804
729	6/18/2014 7:25	14.804
730	6/18/2014 7:40	14.9
731	6/18/2014 7:55	14.996
732	6/18/2014 8:10	14.9
733	6/18/2014 8:25	14.9
734	6/18/2014 8:40	14.804
735	6/18/2014 8:55	14.709
736	6/18/2014 9:10	14.709
737	6/18/2014 9:25	14.613
738	6/18/2014 9:40	14.613
739	6/18/2014 9:55	14.613
740	6/18/2014 10:10	14.709
741	6/18/2014 10:25	14.709
742	6/18/2014 10:40	14.804
743	6/18/2014 10:55	14.804
744	6/18/2014 11:10	14.709
745	6/18/2014 11:25	14.709
746	6/18/2014 11:40	14.709
747	6/18/2014 11:55	14.709
748	6/18/2014 12:10	14.709
749	6/18/2014 12:25	14.709
750	6/18/2014 12:40	14.804
751	6/18/2014 12:55	14.804
752	6/18/2014 13:10	14.9
753	6/18/2014 13:25	14.9
754	6/18/2014 13:40	14.996
755	6/18/2014 13:55	14.996
756	6/18/2014 14:10	15.091
757	6/18/2014 14:25	15.091
758	6/18/2014 14:40	15.091
759	6/18/2014 14:55	14.996
760	6/18/2014 15:10	14.996
761	6/18/2014 15:25	15.091
762	6/18/2014 15:40	15.091
763	6/18/2014 15:55	15.282
764	6/18/2014 16:10	15.473
765	6/18/2014 16:25	15.569
766	6/18/2014 16:40	15.569
767	6/18/2014 16:55	15.664
768	6/18/2014 17:10	15.76
769	6/18/2014 17:25	15.664
770	6/18/2014 17:40	15.569
771	6/18/2014 17:55	16.523
772	6/18/2014 18:10	16.618
773	6/18/2014 18:25	15.951
774	6/18/2014 18:40	15.378
775	6/18/2014 18:55	15.282
776	6/18/2014 19:10	15.282
777	6/18/2014 19:25	15.473
778	6/18/2014 19:40	15.091
779	6/18/2014 19:55	14.996
780	6/18/2014 20:10	15.091
781	6/18/2014 20:25	15.473
782	6/18/2014 20:40	15.569
783	6/18/2014 20:55	15.569
784	6/18/2014 21:10	15.473
785	6/18/2014 21:25	15.473
786	6/18/2014 21:40	15.473
787	6/18/2014 21:55	15.473
788	6/18/2014 22:10	15.473
789	6/18/2014 22:25	15.473
790	6/18/2014 22:40	15.473
791	6/18/2014 22:55	15.473
792	6/18/2014 23:10	15.378
793	6/18/2014 23:25	15.187
794	6/18/2014 23:40	15.282
795	6/18/2014 23:55	15.282
796	6/19/2014 0:10	14.996
797	6/19/2014 0:25	14.709
798	6/19/2014 0:40	14.613
799	6/19/2014 0:55	14.517
800	6/19/2014 1:10	14.613
801	6/19/2014 1:25	14.709
802	6/19/2014 1:40	14.613
803	6/19/2014 1:55	14.613
804	6/19/2014 2:10	14.709
805	6/19/2014 2:25	14.996
806	6/19/2014 2:40	14.996
807	6/19/2014 2:55	14.996
808	6/19/2014 3:10	14.9
809	6/19/2014 3:25	14.9
810	6/19/2014 3:40	14.9
811	6/19/2014 3:55	14.804
812	6/19/2014 4:10	14.804
813	6/19/2014 4:25	14.9
814	6/19/2014 4:40	14.9
815	6/19/2014 4:55	14.9
816	6/19/2014 5:10	14.804
817	6/19/2014 5:25	14.804
818	6/19/2014 5:40	14.804
819	6/19/2014 5:55	14.9
820	6/19/2014 6:10	14.9
821	6/19/2014 6:25	14.9
822	6/19/2014 6:40	14.996
823	6/19/2014 6:55	14.9
824	6/19/2014 7:10	14.996
825	6/19/2014 7:25	15.091
826	6/19/2014 7:40	15.282
827	6/19/2014 7:55	15.187
828	6/19/2014 8:10	15.091
829	6/19/2014 8:25	14.996
830	6/19/2014 8:40	14.996
831	6/19/2014 8:55	14.996
832	6/19/2014 9:10	14.996
833	6/19/2014 9:25	14.996
834	6/19/2014 9:40	14.804
835	6/19/2014 9:55	14.804
836	6/19/2014 10:10	14.996
837	6/19/2014 10:25	14.996
838	6/19/2014 10:40	15.091
839	6/19/2014 10:55	15.091
840	6/19/2014 11:10	15.951
841	6/19/2014 11:25	24.158
842	6/19/2014 11:40	26.097
843	6/19/2014 11:55	24.448
844	6/19/2014 12:10	26.097
845	6/19/2014 12:25	31.472
846	6/19/2014 12:40	29.053
847	6/19/2014 12:55	30.76
848	6/19/2014 13:10	19.377
849	6/19/2014 13:25	19.472
850	6/19/2014 13:40	19.662
851	6/19/2014 13:55	22.812
852	6/19/2014 14:10	38.714
853	6/19/2014 14:25	24.545
854	6/19/2014 14:40	23.773
855	6/19/2014 14:55	22.812
856	6/19/2014 15:10	23.004
857	6/19/2014 15:25	24.255
858	6/19/2014 15:40	23.966
859	6/19/2014 15:55	24.062
860	6/19/2014 16:10	24.255
861	6/19/2014 16:25	24.062
862	6/19/2014 16:40	21.282
863	6/19/2014 16:55	19.662
864	6/19/2014 17:10	16.903
865	6/19/2014 17:25	15.569
866	6/19/2014 17:40	15.569
867	6/19/2014 17:55	15.664
868	6/19/2014 18:10	15.569
869	6/19/2014 18:25	15.855
870	6/19/2014 18:40	15.951
871	6/19/2014 18:55	15.951
872	6/19/2014 19:10	16.523
873	6/19/2014 19:25	16.618
874	6/19/2014 19:40	15.282
875	6/19/2014 19:55	14.9
876	6/19/2014 20:10	14.9
877	6/19/2014 20:25	14.613